Weather History for Fort Leonard Wood, MO

Change the Weather History Date:

Sunday, September 29, 2013

  Actual Average Record
Temperature  
Mean Temperature 62 °F -  
Max Temperature 71 °F 73 °F 87 °F (1998)
Min Temperature 54 °F 52 °F 39 °F (2003)
Degree Days  
Heating Degree Days 2    
Growing Degree Days 12 (Base 50)    
Moisture  
Dew Point 57 °F    
Average Humidity 92    
Maximum Humidity 100    
Minimum Humidity 54    
Precipitation  
Precipitation 0.01 in - - ()
Sea Level Pressure  
Sea Level Pressure 30.05 in    
Wind  
Wind Speed 7 mph (North)    
Max Wind Speed 13 mph    
Max Gust Speed 16 mph    
Visibility 8 miles    
Events Fog    
Averages and records for this station are not official NWS values.
T = Trace of Precipitation, MM = Missing Value Source: NWS Daily Summary

Daily Weather History Graph

Daily Weather History Graph

Search for Another Location

Airport:

Trip Planner

Search our weather history database for the weather conditions in past years. The results will help you decide how hot, cold, wet, or windy it might be!

Date:

Astronomy

Sep. 29, 2013 Rise Set
Actual Time 7:02 AM CDT 6:54 PM CDT
Civil Twilight 6:36 AM CDT 7:20 PM CDT
Nautical Twilight 6:06 AM CDT 7:50 PM CDT
Astronomical Twilight 5:35 AM CDT 8:21 PM CDT
Moon 1:49 AM CDT (9/29) 3:46 PM CDT (9/29)
Length of Visible Light 12h 43m
Length of Day
11h 51m
Waning Crescent, 27% of the Moon is Illuminated
Sep 29
Waning Crescent
Oct 4
New
Oct 11
First Quarter
Oct 18
Full
Oct 26
Last Quarter

Hourly Weather History & Observations

Time (CDT) Temp. Dew Point Humidity Pressure Visibility Wind Dir Wind Speed Gust Speed Precip Events Conditions
12:13 AM 62.6 °F 62.6 °F 100% 30.05 in 1.5 mi NNW 10.4 mph 16.1 mph N/A   Overcast
12:23 AM 60.8 °F 60.8 °F 100% 30.05 in 3.0 mi NNW 12.7 mph - N/A   Overcast
12:38 AM 60.8 °F 60.8 °F 100% 30.06 in 2.5 mi NW 11.5 mph - N/A   Overcast
12:39 AM 60.8 °F 60.8 °F 100% 30.06 in 2.0 mi NW 10.4 mph - N/A   Light Drizzle
12:49 AM 60.8 °F 60.8 °F 100% 30.05 in 4.0 mi NW 9.2 mph - N/A   Light Drizzle
12:50 AM 60.8 °F 60.8 °F 100% 30.05 in 8.0 mi NNW 8.1 mph - N/A   Overcast
12:58 AM 60.1 °F 60.1 °F 100% 30.04 in 10.0 mi NW 10.4 mph - 0.00 in   Overcast
1:28 AM 59.0 °F 59.0 °F 100% 30.06 in 10.0 mi North 9.2 mph - N/A   Overcast
1:58 AM 59.0 °F 59.0 °F 100% 30.05 in 10.0 mi NNW 9.2 mph - N/A   Overcast
2:31 AM 59.0 °F 59.0 °F 100% 30.06 in 10.0 mi NNW 6.9 mph - N/A   Light Drizzle
2:42 AM 59.0 °F 59.0 °F 100% 30.06 in 10.0 mi NNW 6.9 mph - N/A   Overcast
2:52 AM 59.0 °F 59.0 °F 100% 30.06 in 10.0 mi North 8.1 mph - N/A   Light Drizzle
2:58 AM 58.3 °F 58.3 °F 100% 30.05 in 10.0 mi North 6.9 mph - 0.00 in   Light Drizzle
3:28 AM 59.0 °F 59.0 °F 100% 30.06 in 10.0 mi North 8.1 mph - N/A   Overcast
3:44 AM 57.2 °F 57.2 °F 100% 30.07 in 10.0 mi NNW 5.8 mph - N/A   Overcast
3:49 AM 59.0 °F 59.0 °F 100% 30.07 in 10.0 mi North 4.6 mph - N/A   Overcast
3:58 AM 58.1 °F 58.1 °F 100% 30.06 in 10.0 mi North 6.9 mph - 0.01 in   Overcast
4:28 AM 57.2 °F 57.2 °F 100% 30.07 in 10.0 mi North 5.8 mph - N/A   Overcast
4:58 AM 57.7 °F 57.7 °F 100% 30.06 in 10.0 mi North 4.6 mph - N/A   Overcast
5:58 AM 56.5 °F 56.5 °F 100% 30.07 in 10.0 mi North 3.5 mph - N/A   Scattered Clouds
6:58 AM 55.4 °F 55.4 °F 100% 30.09 in 10.0 mi North 5.8 mph - N/A   Mostly Cloudy
7:38 AM 55.4 °F 55.4 °F 100% 30.09 in 10.0 mi NNW 3.5 mph - N/A   Mostly Cloudy
7:53 AM 55.4 °F 55.4 °F 100% 30.08 in 0.8 mi North 2.3 mph - N/A   Mist
7:58 AM 55.8 °F 55.8 °F 100% 30.08 in 0.5 mi North 2.3 mph - N/A Fog Fog
8:03 AM 55.4 °F 55.4 °F 100% 30.09 in 1.8 mi North 3.5 mph - N/A   Scattered Clouds
8:08 AM 57.2 °F 57.2 °F 100% 30.09 in 3.0 mi North 3.5 mph - N/A   Scattered Clouds
8:23 AM 57.2 °F 57.2 °F 100% 30.09 in 1.8 mi NNW 3.5 mph - N/A   Scattered Clouds
8:33 AM 57.2 °F 57.2 °F 100% 30.09 in 1.5 mi Variable 3.5 mph - N/A   Mostly Cloudy
8:38 AM 57.2 °F 57.2 °F 100% 30.08 in 4.0 mi North 5.8 mph - N/A   Scattered Clouds
8:58 AM 58.6 °F 58.6 °F 100% 30.09 in 10.0 mi North 6.9 mph - N/A   Partly Cloudy
9:58 AM 61.3 °F 55.2 °F 80% 30.09 in 10.0 mi NNE 8.1 mph - N/A   Clear
10:58 AM 64.0 °F 55.6 °F 74% 30.09 in 10.0 mi NE 6.9 mph - N/A   Clear
11:58 AM 66.2 °F 54.7 °F 66% 30.07 in 10.0 mi NNE 6.9 mph - N/A   Clear
12:58 PM 68.7 °F 54.5 °F 60% 30.06 in 10.0 mi Variable 4.6 mph - N/A   Clear
1:58 PM 69.4 °F 56.1 °F 62% 30.02 in 10.0 mi North 5.8 mph - N/A   Clear
2:58 PM 71.2 °F 53.8 °F 54% 30.01 in 9.0 mi Variable 1.2 mph - N/A   Clear
3:58 PM 71.2 °F 54.1 °F 55% 29.99 in 10.0 mi NNE 5.8 mph - N/A   Clear
4:58 PM 70.7 °F 54.3 °F 56% 29.99 in 10.0 mi NNE 4.6 mph - N/A   Clear
5:58 PM 70.0 °F 52.7 °F 54% 29.99 in 10.0 mi East 3.5 mph - N/A   Clear
6:58 PM 63.9 °F 57.6 °F 80% 29.99 in 10.0 mi NNE 2.3 mph - N/A   Clear
7:58 PM 58.8 °F 56.8 °F 93% 29.99 in 10.0 mi NE 3.5 mph - N/A   Clear
8:58 PM 56.1 °F 55.0 °F 96% 30.01 in 8.0 mi NE 2.3 mph - N/A   Clear
9:58 PM 54.5 °F 54.5 °F 100% 29.99 in 9.0 mi ESE 1.2 mph - N/A   Clear
10:58 PM 55.9 °F 55.9 °F 100% 29.99 in 10.0 mi SE 2.3 mph - N/A   Clear
11:58 PM 55.8 °F 55.8 °F 100% 29.99 in 6.0 mi SE 3.5 mph - N/A   Clear